Time,TemperatureF,DewpointF,PressureIn,WindDirection,WindDirectionDegrees,WindSpeedMPH,WindSpeedGustMPH,Humidity,HourlyPrecipIn,Conditions,Clouds,dailyrainin,SolarRadiationWatts/m^2,SoftwareType,DateUTC
2013-02-05 00:21:00,44.0,38.0,-100.00,ENE,71,2.0,4.0,80,0.00,,,0.00,0.000000,,2013-02-05 08:21:00,
2013-02-05 00:31:00,44.0,38.0,-100.00,ENE,71,2.0,4.0,80,0.00,,,0.00,0.000000,,2013-02-05 08:31:00,
2013-02-05 00:41:00,44.0,38.0,-100.00,ENE,71,2.0,4.0,80,0.00,,,0.00,0.000000,,2013-02-05 08:41:00,
2013-02-05 00:52:00,44.0,38.0,-100.00,ENE,71,2.0,4.0,80,0.00,,,0.00,0.000000,,2013-02-05 08:52:00,
2013-02-05 01:21:00,45.0,39.0,-100.00,ESE,107,4.0,7.0,78,0.00,,,0.00,0.000000,,2013-02-05 09:21:00,
2013-02-05 01:31:00,45.0,39.0,-100.00,ESE,107,4.0,7.0,78,0.00,,,0.00,0.000000,,2013-02-05 09:31:00,
2013-02-05 01:42:00,45.0,39.0,-100.00,ESE,107,4.0,7.0,78,0.00,,,0.00,0.000000,,2013-02-05 09:42:00,
2013-02-05 01:51:00,45.0,39.0,-100.00,ESE,107,4.0,7.0,78,0.00,,,0.00,0.000000,,2013-02-05 09:51:00,
2013-02-05 02:21:00,44.0,37.0,-100.00,NE,54,2.0,6.0,77,0.00,,,0.00,0.000000,,2013-02-05 10:21:00,
2013-02-05 02:31:00,44.0,37.0,-100.00,NE,54,2.0,6.0,77,0.00,,,0.00,0.000000,,2013-02-05 10:31:00,
2013-02-05 02:42:00,44.0,37.0,-100.00,NE,54,2.0,6.0,77,0.00,,,0.00,0.000000,,2013-02-05 10:42:00,
2013-02-05 02:52:00,44.0,37.0,-100.00,NE,54,2.0,6.0,77,0.00,,,0.00,0.000000,,2013-02-05 10:52:00,
2013-02-05 03:22:00,45.0,35.0,-100.00,ESE,105,5.0,8.0,68,0.00,,,0.00,0.000000,,2013-02-05 11:22:00,
2013-02-05 03:32:00,45.0,35.0,-100.00,ESE,105,5.0,8.0,68,0.00,,,0.00,0.000000,,2013-02-05 11:32:00,
2013-02-05 03:41:00,45.0,35.0,-100.00,ESE,105,5.0,8.0,68,0.00,,,0.00,0.000000,,2013-02-05 11:41:00,
2013-02-05 03:52:00,45.0,35.0,-100.00,ESE,105,5.0,8.0,68,0.00,,,0.00,0.000000,,2013-02-05 11:52:00,
2013-02-05 04:21:00,43.0,33.0,-100.00,NNE,24,2.0,9.0,68,0.00,,,0.00,0.000000,,2013-02-05 12:21:00,
2013-02-05 04:32:00,43.0,33.0,-100.00,NNE,24,2.0,9.0,68,0.00,,,0.00,0.000000,,2013-02-05 12:32:00,
2013-02-05 04:41:00,43.0,33.0,-100.00,NNE,24,2.0,9.0,68,0.00,,,0.00,0.000000,,2013-02-05 12:41:00,
2013-02-05 04:52:00,43.0,33.0,-100.00,NNE,24,2.0,9.0,68,0.00,,,0.00,0.000000,,2013-02-05 12:52:00,
2013-02-05 05:21:00,39.0,36.0,-100.00,NNE,24,3.0,7.0,90,0.00,,,0.00,0.000000,,2013-02-05 13:21:00,
2013-02-05 05:31:00,39.0,36.0,-100.00,NNE,24,3.0,7.0,90,0.00,,,0.00,0.000000,,2013-02-05 13:31:00,
2013-02-05 05:42:00,39.0,36.0,-100.00,NNE,24,3.0,7.0,90,0.00,,,0.00,0.000000,,2013-02-05 13:42:00,
2013-02-05 05:51:00,39.0,36.0,-100.00,NNE,24,3.0,7.0,90,0.00,,,0.00,0.000000,,2013-02-05 13:51:00,
2013-02-05 06:21:00,38.0,36.0,-100.00,ESE,116,2.0,4.0,93,0.00,,,0.00,0.000000,,2013-02-05 14:21:00,
2013-02-05 06:31:00,38.0,36.0,-100.00,ESE,116,2.0,4.0,93,0.00,,,0.00,0.000000,,2013-02-05 14:31:00,
2013-02-05 06:42:00,38.0,36.0,-100.00,ESE,116,2.0,4.0,93,0.00,,,0.00,0.000000,,2013-02-05 14:42:00,
2013-02-05 06:52:00,38.0,36.0,-100.00,ESE,116,2.0,4.0,93,0.00,,,0.00,0.000000,,2013-02-05 14:52:00,
2013-02-05 07:21:00,42.0,36.0,-100.00,ESE,114,4.0,9.0,80,0.00,,,0.00,0.000000,,2013-02-05 15:21:00,
2013-02-05 07:32:00,42.0,36.0,-100.00,ESE,114,4.0,9.0,80,0.00,,,0.00,0.000000,,2013-02-05 15:32:00,
2013-02-05 07:41:00,42.0,36.0,-100.00,ESE,114,4.0,9.0,80,0.00,,,0.00,0.000000,,2013-02-05 15:41:00,
2013-02-05 07:51:00,42.0,36.0,-100.00,ESE,114,4.0,9.0,80,0.00,,,0.00,0.000000,,2013-02-05 15:51:00,
2013-02-05 08:22:00,43.0,36.0,-100.00,SE,137,4.0,7.0,77,0.00,,,-99.99,22.000000,,2013-02-05 16:22:00,
2013-02-05 08:32:00,43.0,36.0,-100.00,SE,137,4.0,7.0,77,0.00,,,-99.99,22.000000,,2013-02-05 16:32:00,
2013-02-05 08:41:00,43.0,36.0,-100.00,SE,137,4.0,7.0,77,0.00,,,-99.99,22.000000,,2013-02-05 16:41:00,
2013-02-05 08:51:00,43.0,36.0,-100.00,SE,137,4.0,7.0,77,0.00,,,-99.99,22.000000,,2013-02-05 16:51:00,
2013-02-05 09:21:00,46.0,39.0,-100.00,ESE,117,3.0,7.0,76,0.00,,,-99.99,103.000000,,2013-02-05 17:21:00,
2013-02-05 09:32:00,46.0,39.0,-100.00,ESE,117,3.0,7.0,76,0.00,,,-99.99,103.000000,,2013-02-05 17:32:00,
2013-02-05 09:42:00,46.0,39.0,-100.00,ESE,117,3.0,7.0,76,0.00,,,-99.99,103.000000,,2013-02-05 17:42:00,
2013-02-05 09:52:00,46.0,39.0,-100.00,ESE,117,3.0,7.0,76,0.00,,,-99.99,103.000000,,2013-02-05 17:52:00,
2013-02-05 10:21:00,51.0,42.0,-100.00,South,173,5.0,10.0,72,0.00,,,0.00,261.000000,,2013-02-05 18:21:00,
2013-02-05 10:32:00,51.0,42.0,-100.00,South,173,5.0,10.0,72,0.00,,,0.00,261.000000,,2013-02-05 18:32:00,
2013-02-05 10:42:00,51.0,42.0,-100.00,South,173,5.0,10.0,72,0.00,,,0.00,261.000000,,2013-02-05 18:42:00,
2013-02-05 10:51:00,51.0,42.0,-100.00,South,173,5.0,10.0,72,0.00,,,0.00,261.000000,,2013-02-05 18:51:00,
2013-02-05 11:21:00,52.0,44.0,-100.00,SSE,166,5.0,7.0,74,0.00,,,0.00,226.000000,,2013-02-05 19:21:00,
2013-02-05 11:31:00,52.0,44.0,-100.00,SSE,166,5.0,7.0,74,0.00,,,0.00,226.000000,,2013-02-05 19:31:00,
2013-02-05 11:42:00,52.0,44.0,-100.00,SSE,166,5.0,7.0,74,0.00,,,0.00,226.000000,,2013-02-05 19:42:00,
2013-02-05 11:51:00,52.0,44.0,-100.00,SSE,166,5.0,7.0,74,0.00,,,0.00,226.000000,,2013-02-05 19:51:00,
2013-02-05 12:21:00,54.0,44.0,-100.00,South,191,5.0,9.0,70,0.00,,,0.00,402.000000,,2013-02-05 20:21:00,
2013-02-05 12:32:00,54.0,44.0,-100.00,South,191,5.0,9.0,70,0.00,,,0.00,402.000000,,2013-02-05 20:32:00,
2013-02-05 12:41:00,54.0,44.0,-100.00,South,191,5.0,9.0,70,0.00,,,0.00,402.000000,,2013-02-05 20:41:00,
2013-02-05 12:52:00,54.0,44.0,-100.00,South,191,5.0,9.0,70,0.00,,,0.00,402.000000,,2013-02-05 20:52:00,
2013-02-05 13:21:00,56.0,45.0,-100.00,SSE,167,7.0,11.0,66,0.00,,,0.00,495.000000,,2013-02-05 21:21:00,
2013-02-05 13:32:00,56.0,45.0,-100.00,SSE,167,7.0,11.0,66,0.00,,,0.00,495.000000,,2013-02-05 21:32:00,
2013-02-05 13:41:00,56.0,45.0,-100.00,SSE,167,7.0,11.0,66,0.00,,,0.00,495.000000,,2013-02-05 21:41:00,
2013-02-05 13:51:00,56.0,45.0,-100.00,SSE,167,7.0,11.0,66,0.00,,,0.00,495.000000,,2013-02-05 21:51:00,
2013-02-05 14:21:00,56.0,45.0,-100.00,SSE,161,7.0,11.0,67,0.00,,,0.00,485.000000,,2013-02-05 22:21:00,
2013-02-05 14:31:00,56.0,45.0,-100.00,SSE,161,7.0,11.0,67,0.00,,,0.00,485.000000,,2013-02-05 22:31:00,
2013-02-05 14:41:00,56.0,45.0,-100.00,SSE,161,7.0,11.0,67,0.00,,,0.00,485.000000,,2013-02-05 22:41:00,
2013-02-05 14:51:00,56.0,45.0,-100.00,SSE,161,7.0,11.0,67,0.00,,,0.00,485.000000,,2013-02-05 22:51:00,
2013-02-05 15:21:00,56.0,46.0,-100.00,SSE,152,7.0,11.0,70,0.00,,,0.00,428.000000,,2013-02-05 23:21:00,
2013-02-05 15:32:00,56.0,46.0,-100.00,SSE,152,7.0,11.0,70,0.00,,,0.00,428.000000,,2013-02-05 23:32:00,
2013-02-05 15:41:00,56.0,46.0,-100.00,SSE,152,7.0,11.0,70,0.00,,,0.00,428.000000,,2013-02-05 23:41:00,
2013-02-05 15:52:00,56.0,46.0,-100.00,SSE,152,7.0,11.0,70,0.00,,,0.00,428.000000,,2013-02-05 23:52:00,
2013-02-05 16:21:00,56.0,47.0,-100.00,SSE,156,5.0,10.0,71,0.00,,,0.00,266.000000,,2013-02-06 00:21:00,
2013-02-05 16:32:00,56.0,47.0,-100.00,SSE,156,5.0,10.0,71,0.00,,,0.00,266.000000,,2013-02-06 00:32:00,
2013-02-05 16:42:00,56.0,47.0,-100.00,SSE,156,5.0,10.0,71,0.00,,,0.00,266.000000,,2013-02-06 00:42:00,
2013-02-05 16:52:00,56.0,47.0,-100.00,SSE,156,5.0,10.0,71,0.00,,,0.00,266.000000,,2013-02-06 00:52:00,
2013-02-05 17:21:00,55.0,48.0,-100.00,SSE,153,4.0,10.0,76,0.00,,,0.00,132.000000,,2013-02-06 01:21:00,
2013-02-05 17:32:00,55.0,48.0,-100.00,SSE,153,4.0,10.0,76,0.00,,,0.00,132.000000,,2013-02-06 01:32:00,
2013-02-05 17:41:00,55.0,48.0,-100.00,SSE,153,4.0,10.0,76,0.00,,,0.00,132.000000,,2013-02-06 01:41:00,
2013-02-05 17:52:00,55.0,48.0,-100.00,SSE,153,4.0,10.0,76,0.00,,,0.00,132.000000,,2013-02-06 01:52:00,
2013-02-05 18:22:00,50.0,46.0,-100.00,SSE,158,3.0,5.0,85,0.00,,,0.00,23.000000,,2013-02-06 02:22:00,
2013-02-05 18:32:00,50.0,46.0,-100.00,SSE,158,3.0,5.0,85,0.00,,,0.00,23.000000,,2013-02-06 02:32:00,
2013-02-05 18:42:00,50.0,46.0,-100.00,SSE,158,3.0,5.0,85,0.00,,,0.00,23.000000,,2013-02-06 02:42:00,
2013-02-05 18:52:00,50.0,46.0,-100.00,SSE,158,3.0,5.0,85,0.00,,,0.00,23.000000,,2013-02-06 02:52:00,
2013-02-05 19:21:00,47.0,45.0,-100.00,East,98,3.0,5.0,94,0.00,,,0.00,0.000000,,2013-02-06 03:21:00,
2013-02-05 19:32:00,47.0,45.0,-100.00,East,98,3.0,5.0,94,0.00,,,0.00,0.000000,,2013-02-06 03:32:00,
2013-02-05 19:42:00,47.0,45.0,-100.00,East,98,3.0,5.0,94,0.00,,,0.00,0.000000,,2013-02-06 03:42:00,
2013-02-05 19:52:00,47.0,45.0,-100.00,East,98,3.0,5.0,94,0.00,,,0.00,0.000000,,2013-02-06 03:52:00,
2013-02-05 20:21:00,45.0,43.0,-100.00,NNW,347,2.0,5.0,93,0.00,,,0.00,0.000000,,2013-02-06 04:21:00,
2013-02-05 20:31:00,45.0,43.0,-100.00,NNW,347,2.0,5.0,93,0.00,,,0.00,0.000000,,2013-02-06 04:31:00,
2013-02-05 20:41:00,45.0,43.0,-100.00,NNW,347,2.0,5.0,93,0.00,,,0.00,0.000000,,2013-02-06 04:41:00,
2013-02-05 20:51:00,45.0,43.0,-100.00,NNW,347,2.0,5.0,93,0.00,,,0.00,0.000000,,2013-02-06 04:51:00,
2013-02-05 21:22:00,45.0,44.0,-100.00,ENE,63,2.0,4.0,95,0.00,,,0.00,0.000000,,2013-02-06 05:22:00,
2013-02-05 21:31:00,45.0,44.0,-100.00,ENE,63,2.0,4.0,95,0.00,,,0.00,0.000000,,2013-02-06 05:31:00,
2013-02-05 21:41:00,45.0,44.0,-100.00,ENE,63,2.0,4.0,95,0.00,,,0.00,0.000000,,2013-02-06 05:41:00,
2013-02-05 21:52:00,45.0,44.0,-100.00,ENE,63,2.0,4.0,95,0.00,,,0.00,0.000000,,2013-02-06 05:52:00,
2013-02-05 22:21:00,45.0,43.0,-100.00,NNE,21,1.0,3.0,94,0.00,,,0.00,0.000000,,2013-02-06 06:21:00,
2013-02-05 22:31:00,45.0,43.0,-100.00,NNE,21,1.0,3.0,94,0.00,,,0.00,0.000000,,2013-02-06 06:31:00,
2013-02-05 22:42:00,45.0,43.0,-100.00,NNE,21,1.0,3.0,94,0.00,,,0.00,0.000000,,2013-02-06 06:42:00,
2013-02-05 22:51:00,45.0,43.0,-100.00,NNE,21,1.0,3.0,94,0.00,,,0.00,0.000000,,2013-02-06 06:51:00,
2013-02-05 23:21:00,43.0,42.0,-100.00,NNW,348,2.0,5.0,95,0.00,,,0.00,0.000000,,2013-02-06 07:21:00,
2013-02-05 23:32:00,43.0,42.0,-100.00,NNW,348,2.0,5.0,95,0.00,,,0.00,0.000000,,2013-02-06 07:32:00,
2013-02-05 23:41:00,43.0,42.0,-100.00,NNW,348,2.0,5.0,95,0.00,,,0.00,0.000000,,2013-02-06 07:41:00,
2013-02-05 23:51:00,43.0,42.0,-100.00,NNW,348,2.0,5.0,95,0.00,,,0.00,0.000000,,2013-02-06 07:51:00,